Location: Asheville, NC
(35.6000°N, 82.5500°W)
Time: 00:35:45
(UTC-04:00)

Vanguard 1 - Pass Details

Date: 08 March 2018
Orbit: 650 x 3833 km, 34.3° (Epoch: 17 June)

Event Time Altitude Azimuth Distance (km) Brightness Sun altitude
Rises 17:09:46 0° 286° (WNW) 6,632 15.3 15.5°
Reaches altitude 10° 17:15:23 10° 279° (W) 5,063 15.1 14.4°
Maximum altitude 17:26:17 32° 223° (SW) 2,480 13.2 12.3°
Drops below altitude 10° 17:32:54 10° 162° (SSE) 3,018 12.6 11.0°
Sets 17:35:23 0° 151° (SSE) 3,694 12.9 10.5°
